Regional Weather Roundup
Issued by NWS

Home | Current Version | Previous Version | Graphics & Text | Print | Product List | Glossary On
Versions: 1 2 3 4 5 6 7 8 9 10 11 12 13 14 15 16 17 18 19 20 21 22 23 24 25 26 27 28 29 30 31 32 33 34 35 36 37 38 39 40 41 42 43 44 45 46 47 48 49 50
000
ASUS43 KLOT 300009
RWRIL

ILLINOIS REGIONAL WEATHER ROUNDUP
NATIONAL WEATHER SERVICE CHICAGO/ROMEOVILLE IL
700 PM CDT MON MAY 29 2017

NOTE: "FAIR" INDICATES FEW OR NO CLOUDS BELOW 12,000 FEET WITH NO
SIGNIFICANT WEATHER AND/OR OBSTRUCTIONS TO VISIBILITY.

* THESE STATIONS ARE NOT UNDER NWS QUALITY CONTROL. THEY ALSO MAY NOT
  REPORT WEATHER SUCH AS PRECIPITATION OR FOG.

ILZ001-002-007-009-015-016-024-300100-
NORTHWEST ILLINOIS

CITY           SKY/WX    TMP DP  RH WIND       PRES   REMARKS
MOLINE         SUNNY     73  42  32 W13G26    29.87R
6HR MIN TEMP:  73; 6HR MAX TEMP:  77;

STERLING*      SUNNY     70  45  40 W18       29.86S
SAVANNA*       MOSUNNY   71  44  37 W13G18    29.86R
$$

ILZ003-004-008-010-011-017-018-300100-
NORTH CENTRAL ILLINOIS

CITY           SKY/WX    TMP DP  RH WIND       PRES   REMARKS
ROCKFORD       MOSUNNY   71  45  39 W12G20    29.86R
6HR MIN TEMP:  70; 6HR MAX TEMP:  74;

FREEPORT*      MOSUNNY   68  43  40 W12G18    29.87R
ROCHELLE*      MOSUNNY   70  47  43 W16       29.87R
DE KALB*       PTSUNNY   69  46  42 W10G23    29.87R
PERU*          MOSUNNY   71  42  35 W14G23    29.88R
$$

ILZ005-006-012>014-019>023-300100-
NORTHEAST ILLINOIS

CITY           SKY/WX    TMP DP  RH WIND       PRES   REMARKS
CHICAGO-OHARE  MOSUNNY   72  42  34 W13G23    29.84S
6HR MIN TEMP:  71; 6HR MAX TEMP:  77;

CHICAGO-MIDWAY MOSUNNY   74  44  34 W14G24    29.85R
6HR MIN TEMP:  73; 6HR MAX TEMP:  78;

AURORA         PTSUNNY   72  44  36 W17       29.86R
6HR MIN TEMP:  72; 6HR MAX TEMP:  77;

LANSING*       MOSUNNY   73  47  39 W13G20    29.86S
JOLIET*        MOSUNNY   74  43  32 W9G16     29.87R
WAUKEGAN       MOSUNNY   69  44  40 W8G17     29.83R
6HR MIN TEMP:  69; 6HR MAX TEMP:  73;

DUPAGE AIRPORT PTSUNNY   71  46  40 W14G22    29.85R
6HR MIN TEMP:  71; 6HR MAX TEMP:  75;

KANKAKEE*      MOSUNNY   76  40  27 W12G20    29.88R
WHEELING       MOSUNNY   71  45  39 W12G21    29.85R
6HR MIN TEMP:  71; 6HR MAX TEMP:  75;

MORRIS*        PTSUNNY   73  42  32 W16       29.86R
ROMEOVILLE*    MOSUNNY   71  48  43 W13G20    29.86R
NORTHERLY ISL    N/A     72  41  32 W13         N/A
$$

LMZ740>746-300100-
SOUTHERN LAKE MICHIGAN

STATION/POSITION SKY/WX   TEMP    WIND        PRES    VSBY  WAVE
                          AIR SEA DIR/SP/G                  HT/PER
                          (F)     (DEG/KT/KT) (MB)    (MI)  (FT/S)
SOUTHERN BUOY              55 49  260/  8/  8 1010.3R         2/ 4
WILMETTE HARBOR            65 54  270/ 12/ 17   N/A           2/ 2
HARRISON CRIB              73     270/ 16/ 18   N/A
BURNHAM HARBOR             72     260/ 10/ 17   N/A
CALUMET HARBOR             74     250/  9/ 15 1010.3R
BURNS HARBOR               65     300/  9/ 13 1011.5R
MICHIGAN CITY              62     270/  3/  5   N/A
MICHIGAN CITY 6N           60 56  300/  8/ 10   N/A           2/ 4
ST. JOSEPH                 63 60   CALM  /  2 1011.0          2/ 4
$$

ILZ025>027-034>036-040-047-049-050-058-095>099-300100-
WEST-CENTRAL ILLINOIS

CITY           SKY/WX    TMP DP  RH WIND       PRES   REMARKS
QUINCY         SUNNY     76  43  30 W14       29.92S
GALESBURG*     PTSUNNY   72  43  34 W17       29.89S
MACOMB*        SUNNY     75  39  26 W20       29.93R
JACKSONVILLE*  SUNNY     76  45  33 W14       29.91S
PITTSFIELD*    MOSUNNY   78  46  33 W9        29.93S
$$

ILZ028>032-037-038-041>044-048-051>054-059>061-300100-
CENTRAL ILLINOIS

CITY           SKY/WX    TMP DP  RH WIND       PRES   REMARKS
PONTIAC        MOSUNNY   76  41  28 W22       29.89R
BLOOMINGTON    MOSUNNY   75  43  31 W18       29.90R
DECATUR        PTSUNNY   77  46  33 NW13      29.89R
PEORIA         SUNNY     75  40  28 W10       29.90R
6HR MIN TEMP:  75; 6HR MAX TEMP:  79;

LACON*         MOSUNNY   74  41  30 W13       29.88R
LINCOLN*       SUNNY     76  49  38 NW3       29.90R
SPRINGFIELD    SUNNY     79  47  32 NW14      29.91R
6HR MIN TEMP:  79; 6HR MAX TEMP:  84;

TAYLORVILLE    PTSUNNY   78  49  35 NW12G17   29.91R
6HR MIN TEMP:  77; 6HR MAX TEMP:  84;

$$

ILZ033-039-045-046-055>057-062-063-300100-
EAST-CENTRAL ILLINOIS

CITY           SKY/WX    TMP DP  RH WIND       PRES   REMARKS
CHAMPAIGN      MOSUNNY   77  44  30 W16       29.89R
RANTOUL*       MOSUNNY   79  47  32 W16G22    29.88R
MATTOON        CLOUDY    78  46  32 W15G23    29.89R
PARIS*         PTSUNNY   78  51  39 W8        29.89R
$$

ILZ079-100>102-300100-
SOUTHWEST ILLINOIS

CITY           SKY/WX    TMP DP  RH WIND       PRES   REMARKS
ALTON          MOSUNNY   73  57  56 W6        29.92S
BELLEVILLE     PTSUNNY   72  60  66 W10       29.91S
CAHOKIA*       MOSUNNY   74  65  73 CALM      29.91F
SPARTA*        CLOUDY    73  55  51 N8G17     29.93R
$$

ILZ064>066-069>071-074>076-080>082-084>086-088>090-092>094-300100-
SOUTH-CENTRAL ILLINOIS

CITY           SKY/WX    TMP DP  RH WIND       PRES   REMARKS
CARBONDALE     SUNNY     81  58  45 SW8       29.90S HX  81
6HR MIN TEMP:  81; 6HR MAX TEMP:  85;

CAIRO*         CLOUDY    81  60  49 SW7       29.93R HX  81
EFFINGHAM*     RAIN      73  54  52 SW16G22   29.95R
MT. VERNON     LGT RAIN  74  54  49 N8G16     29.93R
CENTRALIA*     CLOUDY    72  56  58 NW15      29.93R
SALEM*         CLOUDY    70  54  57 NW16G23   29.95R
METROPOLIS*    CLOUDY    82  58  45 SW6       29.93S HX  82
$$

ILZ067-068-072-073-078-083-087-091-300100-
SOUTHEAST ILLINOIS

CITY           SKY/WX    TMP DP  RH WIND       PRES   REMARKS
LAWRENCEVILLE  MOSUNNY   82  44  26 W10       29.90R HX  80
FLORA*         HVY RAIN  81  49  33 W18G24    29.94R HX  80
FAIRFIELD*     MOSUNNY   80  47  31 SW5       29.89F
HARRISBURG*    MOSUNNY   82  55  40 SW7       29.91S HX  81
ROBINSON*      MOSUNNY   79  48  33 SW7       29.90R
CARMI*         SUNNY     83  48  30 W7        29.90S HX  81
$$

ABBREVIATIONS USED IN REMARKS
   TC - TEMPERATURE IN CELSIUS
  WCI - WIND CHILL INDEX
   HX - HEAT INDEX
  VSB - VISIBILITY
$$




USA.gov is the U.S. government's official web portal to all federal, state and local government web resources and services.